DW3979 Weather Reports


Display with metric or nautical units.
time (UTC)temp
F
wind
direction
speed
MPH
gust
MPH
rain 1hr
in
rain 24hr
in
rain mn
in
humidity
%
barometer
mb
20260504205207 69 81 5.0 13.0 0.00 0.00 0.00 33 1014.7
20260504204204 68 155 4.0 11.0 0.00 0.00 0.00 34 1014.8
20260504203202 69 163 5.0 10.0 0.00 0.00 0.00 34 1014.8
20260504202703 69 184 5.0 11.0 0.00 0.00 0.00 35 1014.9
20260504202202 68 123 5.0 11.0 0.00 0.00 0.00 34 1014.9
20260504201701 68 144 4.0 10.0 0.00 0.00 0.00 36 1014.8
20260504201158 67 140 4.0 12.0 0.00 0.00 0.00 35 1014.7
20260504200658 67 163 5.0 12.0 0.00 0.00 0.00 34 1015.0
20260504200201 67 112 4.0 10.0 0.00 0.00 0.00 36 1015.0
20260504195658 67 160 4.0 9.0 0.00 0.00 0.00 37 1015.2
20260504195158 67 137 4.0 12.0 0.00 0.00 0.00 36 1015.1
20260504194658 67 144 4.0 12.0 0.00 0.00 0.00 36 1014.9
20260504193159 67 148 4.0 12.0 0.00 0.00 0.00 36 1014.9
20260504192657 68 153 4.0 11.0 0.00 0.00 0.00 37 1014.9
20260504192156 68 167 4.0 11.0 0.00 0.00 0.00 34 1015.0
20260504191657 68 149 4.0 9.0 0.00 0.00 0.00 36 1015.1
20260504191156 67 158 4.0 9.0 0.00 0.00 0.00 38 1015.1
20260504190656 67 121 3.0 9.0 0.00 0.00 0.00 39 1015.1
20260504185657 66 163 4.0 9.0 0.00 0.00 0.00 38 1015.2
20260504185156 66 157 5.0 13.0 0.00 0.00 0.00 41 1015.2
20260504184657 66 126 5.0 13.0 0.00 0.00 0.00 41 1015.1
20260504183152 66 141 4.0 7.0 0.00 0.00 0.00 42 1015.5
20260504182652 66 121 3.0 7.0 0.00 0.00 0.00 41 1015.6
20260504182152 66 121 3.0 7.0 0.00 0.00 0.00 41 1015.5
20260504181653 66 141 3.0 7.0 0.00 0.00 0.00 40 1015.7
20260504181151 66 132 4.0 7.0 0.00 0.00 0.00 41 1015.8
20260504180650 67 163 3.0 6.0 0.00 0.00 0.00 40 1015.7
20260504175648 66 140 3.0 6.0 0.00 0.00 0.00 40 1015.8
20260504175148 67 137 3.0 6.0 0.00 0.00 0.00 40 1015.9
20260504174148 67 105 4.0 8.0 0.00 0.00 0.00 39 1015.8
20260504173148 67 106 3.0 8.0 0.00 0.00 0.00 39 1015.8
20260504172648 67 139 4.0 8.0 0.00 0.00 0.00 39 1015.7
20260504172148 66 165 4.0 10.0 0.00 0.00 0.00 40 1015.7
20260504171644 66 138 4.0 10.0 0.00 0.00 0.00 40 1015.6
20260504171144 65 107 4.0 9.0 0.00 0.00 0.00 40 1015.4
20260504170644 66 111 4.0 11.0 0.00 0.00 0.00 39 1015.6
20260504170142 66 109 5.0 11.0 0.00 0.00 0.00 39 1015.7
20260504151118 62 170 2.0 7.0 0.00 0.00 0.00 43 1015.7
20260504150619 62 134 2.0 7.0 0.00 0.00 0.00 44 1015.4
20260504150116 61 153 3.0 7.0 0.00 0.00 0.00 44 1015.1
20260504141112 60 145 2.0 7.0 0.00 0.00 0.00 46 1015.6
20260504140610 60 145 3.0 7.0 0.00 0.00 0.00 45 1015.4
20260504140108 59 126 2.0 7.0 0.00 0.00 0.00 45 1015.4
20260504130604 58 178 0.0 2.0 0.00 0.00 0.00 45 1015.0
20260504110544 60 143 2.0 6.0 0.00 0.00 0.00 46 1015.4
20260504100538 60 192 1.0 2.0 0.00 0.00 0.00 43 1015.5
20260504050426 68 189 3.0 8.0 0.00 0.00 0.00 26 1014.7
20260504045927 69 193 3.0 8.0 0.00 0.00 0.00 26 1014.6
20260504045426 69 182 3.0 8.0 0.00 0.00 0.00 26 1014.4
20260504044925 69 188 3.0 8.0 0.00 0.00 0.00 25 1014.4
20260504044423 69 180 2.0 8.0 0.00 0.00 0.00 25 1014.4
20260504043421 69 190 2.0 5.0 0.00 0.00 0.00 24 1014.4
20260504042922 68 143 1.0 4.0 0.00 0.00 0.00 24 1014.3
20260504042419 68 196 1.0 3.0 0.00 0.00 0.00 23 1014.2
20260504041919 69 222 1.0 3.0 0.00 0.00 0.00 23 1014.2
20260504041419 68 232 1.0 3.0 0.00 0.00 0.00 23 1014.1
20260504040913 69 194 1.0 3.0 0.00 0.00 0.00 22 1014.1
20260504040413 69 194 2.0 4.0 0.00 0.00 0.00 22 1014.0
20260504035911 69 194 2.0 4.0 0.00 0.00 0.00 22 1014.0
20260504035409 70 185 1.0 4.0 0.00 0.00 0.00 21 1014.0
20260504034909 70 185 1.0 4.0 0.00 0.00 0.00 21 1013.9
20260504034409 70 194 2.0 4.0 0.00 0.00 0.00 21 1013.7
20260504033909 71 229 2.0 4.0 0.00 0.00 0.00 20 1013.5
20260504033409 71 196 2.0 4.0 0.00 0.00 0.00 20 1013.5
20260504032909 71 190 2.0 4.0 0.00 0.00 0.00 20 1013.4
20260504032407 71 229 2.0 7.0 0.00 0.00 0.00 20 1013.3
20260504031907 72 187 3.0 7.0 0.00 0.00 0.00 20 1013.2
20260504031405 72 193 2.0 7.0 0.00 0.00 0.00 20 1013.2
20260504030905 72 199 3.0 8.0 0.00 0.00 0.00 19 1013.1
20260504025905 72 211 2.0 6.0 0.00 0.00 0.00 20 1013.2
20260504025359 72 201 2.0 6.0 0.00 0.00 0.00 20 1013.1
20260504023854 73 239 1.0 5.0 0.00 0.00 0.00 19 1012.9
20260504023354 73 184 2.0 5.0 0.00 0.00 0.00 19 1012.7
20260504022855 72 205 1.0 5.0 0.00 0.00 0.00 19 1012.6
20260504021355 73 187 3.0 7.0 0.00 0.00 0.00 19 1012.3
20260504020855 73 152 3.0 7.0 0.00 0.00 0.00 19 1012.3
20260504020354 74 165 3.0 7.0 0.00 0.00 0.00 19 1012.3
20260504015854 74 164 3.0 7.0 0.00 0.00 0.00 19 1012.3
20260504015354 74 167 3.0 7.0 0.00 0.00 0.00 19 1012.3
20260504014854 74 175 2.0 7.0 0.00 0.00 0.00 19 1012.4
20260504014355 74 178 2.0 7.0 0.00 0.00 0.00 19 1012.4
20260504013855 74 157 3.0 7.0 0.00 0.00 0.00 19 1012.4
20260504013355 74 188 2.0 6.0 0.00 0.00 0.00 19 1012.4
20260504012855 75 155 2.0 6.0 0.00 0.00 0.00 19 1012.4
20260504012355 75 186 2.0 6.0 0.00 0.00 0.00 20 1012.4
20260504011855 75 147 3.0 9.0 0.00 0.00 0.00 21 1012.3
20260504010854 76 117 4.0 10.0 0.00 0.00 0.00 20 1012.3
20260504010355 76 166 4.0 10.0 0.00 0.00 0.00 20 1012.4
20260504005855 76 177 4.0 10.0 0.00 0.00 0.00 20 1012.4
20260504005354 76 161 2.0 8.0 0.00 0.00 0.00 20 1012.4
20260504004854 77 178 2.0 7.0 0.00 0.00 0.00 22 1012.5
20260504004355 77 176 3.0 7.0 0.00 0.00 0.00 21 1012.5
20260504003855 77 105 3.0 7.0 0.00 0.00 0.00 21 1012.6
20260504003355 77 178 3.0 7.0 0.00 0.00 0.00 21 1012.5
20260504002853 78 137 3.0 6.0 0.00 0.00 0.00 22 1012.6
20260504001852 78 150 4.0 13.0 0.00 0.00 0.00 22 1012.5
20260504001353 78 138 3.0 9.0 0.00 0.00 0.00 21 1012.6
20260504000853 78 94 3.0 8.0 0.00 0.00 0.00 21 1012.6
20260504000354 78 164 3.0 8.0 0.00 0.00 0.00 21 1012.6
20260503235853 79 180 4.0 10.0 0.00 0.00 0.00 21 1012.5
20260503234850 78 136 4.0 14.0 0.00 0.00 0.00 21 1012.6
20260503234351 78 178 3.0 15.0 0.00 0.00 0.00 20 1012.6
20260503233350 79 145 6.0 14.0 0.00 0.00 0.00 20 1012.7